Time,TemperatureF,DewpointF,PressureIn,WindDirection,WindDirectionDegrees,WindSpeedMPH,WindSpeedGustMPH,Humidity,HourlyPrecipIn,Conditions,Clouds,dailyrainin,SoftwareType,DateUTC
2013-11-26 00:00:00,34.1,27.0,29.86,WSW,237,0.0,-999.0,75,-99.99,,,0.00,weatherlink.com 1.10,2013-11-26 05:00:00,
2013-11-26 00:15:00,34.0,27.0,29.87,West,278,0.0,-999.0,76,-99.99,,,0.00,weatherlink.com 1.10,2013-11-26 05:15:00,
2013-11-26 00:30:00,33.6,27.0,29.87,WSW,241,0.0,-999.0,77,-99.99,,,0.00,weatherlink.com 1.10,2013-11-26 05:30:00,
2013-11-26 00:45:00,33.2,27.0,29.88,NW,311,0.0,-999.0,78,-99.99,,,0.00,weatherlink.com 1.10,2013-11-26 05:45:00,
2013-11-26 01:00:00,32.8,27.0,29.89,SW,223,0.0,-999.0,79,-99.99,,,0.00,weatherlink.com 1.10,2013-11-26 06:00:00,
2013-11-26 01:15:00,32.5,27.0,29.89,NW,312,1.0,-999.0,79,-99.99,,,0.00,weatherlink.com 1.10,2013-11-26 06:15:00,
2013-11-26 01:30:00,32.2,26.0,29.90,West,281,1.0,-999.0,77,-99.99,,,0.00,weatherlink.com 1.10,2013-11-26 06:30:00,
2013-11-26 01:45:00,32.0,26.0,29.90,West,272,0.0,-999.0,78,-99.99,,,0.00,weatherlink.com 1.10,2013-11-26 06:45:00,
2013-11-26 02:00:00,31.5,25.0,29.90,NNW,341,0.0,-999.0,76,-99.99,,,0.00,weatherlink.com 1.10,2013-11-26 07:00:00,
2013-11-26 02:15:00,31.2,24.0,29.91,SW,229,2.0,-999.0,74,-99.99,,,0.00,weatherlink.com 1.10,2013-11-26 07:15:00,
2013-11-26 02:30:00,31.0,23.0,29.92,WNW,299,1.0,-999.0,73,-99.99,,,0.00,weatherlink.com 1.10,2013-11-26 07:30:00,
2013-11-26 02:45:00,30.7,23.0,29.92,WNW,291,0.0,-999.0,72,-99.99,,,0.00,weatherlink.com 1.10,2013-11-26 07:45:00,
2013-11-26 03:00:00,30.1,23.0,29.93,NW,317,1.0,-999.0,74,-99.99,,,0.00,weatherlink.com 1.10,2013-11-26 08:00:00,
2013-11-26 03:15:00,29.8,23.0,29.94,WSW,257,0.0,-999.0,76,-99.99,,,0.00,weatherlink.com 1.10,2013-11-26 08:15:00,
2013-11-26 03:30:00,29.5,23.0,29.95,WSW,245,0.0,-999.0,77,-99.99,,,0.00,weatherlink.com 1.10,2013-11-26 08:30:00,
2013-11-26 03:45:00,29.2,23.0,29.95,WSW,246,1.0,-999.0,77,-99.99,,,0.00,weatherlink.com 1.10,2013-11-26 08:45:00,
2013-11-26 04:00:00,28.7,22.0,29.96,NW,313,0.0,-999.0,75,-99.99,,,0.00,weatherlink.com 1.10,2013-11-26 09:00:00,
2013-11-26 04:15:00,28.3,22.0,29.96,WSW,242,0.0,-999.0,76,-99.99,,,0.00,weatherlink.com 1.10,2013-11-26 09:15:00,
2013-11-26 04:30:00,27.9,22.0,29.96,SE,140,0.0,-999.0,79,-99.99,,,0.00,weatherlink.com 1.10,2013-11-26 09:30:00,
2013-11-26 04:45:00,27.3,23.0,29.96,SSW,200,0.0,-999.0,82,-99.99,,,0.00,weatherlink.com 1.10,2013-11-26 09:45:00,
2013-11-26 05:00:00,27.1,22.0,29.97,SW,215,1.0,-999.0,80,-99.99,,,0.00,weatherlink.com 1.10,2013-11-26 10:00:00,
2013-11-26 05:15:00,26.9,19.0,29.97,SW,235,1.0,-999.0,73,-99.99,,,0.00,weatherlink.com 1.10,2013-11-26 10:15:00,
2013-11-26 05:30:00,26.9,18.0,29.97,West,269,0.0,-999.0,70,-99.99,,,0.00,weatherlink.com 1.10,2013-11-26 10:30:00,
2013-11-26 05:45:00,26.8,17.0,29.97,WSW,248,0.0,-999.0,66,-99.99,,,0.00,weatherlink.com 1.10,2013-11-26 10:45:00,
2013-11-26 06:00:00,26.7,18.0,29.98,WNW,295,0.0,-999.0,69,-99.99,,,0.00,weatherlink.com 1.10,2013-11-26 11:00:00,
2013-11-26 06:15:00,26.5,18.0,29.97,SW,221,0.0,-999.0,71,-99.99,,,0.00,weatherlink.com 1.10,2013-11-26 11:15:00,
2013-11-26 06:30:00,26.2,17.0,29.98,ENE,65,0.0,-999.0,67,-99.99,,,0.00,weatherlink.com 1.10,2013-11-26 11:30:00,
2013-11-26 06:45:00,26.1,17.0,29.98,ENE,65,0.0,-999.0,69,-99.99,,,0.00,weatherlink.com 1.10,2013-11-26 11:45:00,
2013-11-26 07:00:00,25.9,18.0,29.98,SE,130,0.0,-999.0,71,-99.99,,,0.00,weatherlink.com 1.10,2013-11-26 12:00:00,
2013-11-26 07:15:00,25.5,19.0,29.99,NNE,32,0.0,-999.0,76,-99.99,,,0.00,weatherlink.com 1.10,2013-11-26 12:15:00,
2013-11-26 07:30:00,25.0,19.0,30.00,NNE,32,0.0,-999.0,78,-99.99,,,0.00,weatherlink.com 1.10,2013-11-26 12:30:00,
2013-11-26 07:45:00,24.7,18.0,29.99,NNE,32,0.0,-999.0,75,-99.99,,,0.00,weatherlink.com 1.10,2013-11-26 12:45:00,
2013-11-26 08:00:00,24.5,17.0,30.00,West,261,0.0,-999.0,73,-99.99,,,0.00,weatherlink.com 1.10,2013-11-26 13:00:00,
2013-11-26 08:15:00,24.2,17.0,30.00,North,355,0.0,-999.0,73,-99.99,,,0.00,weatherlink.com 1.10,2013-11-26 13:15:00,
2013-11-26 08:30:00,24.0,17.0,30.00,NNW,346,0.0,-999.0,74,-99.99,,,0.00,weatherlink.com 1.10,2013-11-26 13:30:00,
2013-11-26 08:45:00,23.7,18.0,30.01,NE,53,0.0,-999.0,79,-99.99,,,0.00,weatherlink.com 1.10,2013-11-26 13:45:00,
2013-11-26 09:00:00,23.4,18.0,30.01,NE,53,0.0,-999.0,79,-99.99,,,0.00,weatherlink.com 1.10,2013-11-26 14:00:00,
2013-11-26 09:15:00,23.2,17.0,30.02,NE,54,0.0,-999.0,77,-99.99,,,0.00,weatherlink.com 1.10,2013-11-26 14:15:00,
2013-11-26 09:30:00,23.3,17.0,30.03,NE,53,0.0,-999.0,75,-99.99,,,0.00,weatherlink.com 1.10,2013-11-26 14:30:00,
2013-11-26 09:45:00,23.4,16.0,30.03,ENE,65,0.0,-999.0,73,-99.99,,,0.00,weatherlink.com 1.10,2013-11-26 14:45:00,
2013-11-26 10:00:00,23.5,16.0,30.03,South,171,1.0,-999.0,72,-99.99,,,0.00,weatherlink.com 1.10,2013-11-26 15:00:00,
2013-11-26 10:15:00,23.6,16.0,30.04,South,184,0.0,-999.0,73,-99.99,,,0.00,weatherlink.com 1.10,2013-11-26 15:15:00,
2013-11-26 10:30:00,23.7,16.0,30.04,South,184,0.0,-999.0,73,-99.99,,,0.00,weatherlink.com 1.10,2013-11-26 15:30:00,
2013-11-26 10:45:00,23.6,17.0,30.05,West,271,0.0,-999.0,75,-99.99,,,0.00,weatherlink.com 1.10,2013-11-26 15:45:00,
2013-11-26 11:00:00,23.3,17.0,30.05,North,11,0.0,-999.0,78,-99.99,,,0.00,weatherlink.com 1.10,2013-11-26 16:00:00,
2013-11-26 11:15:00,23.4,18.0,30.05,ENE,76,1.0,-999.0,80,-99.99,,,0.00,weatherlink.com 1.10,2013-11-26 16:15:00,
2013-11-26 11:30:00,23.7,18.0,30.04,North,355,0.0,-999.0,78,-99.99,,,0.00,weatherlink.com 1.10,2013-11-26 16:30:00,
2013-11-26 11:45:00,23.2,18.0,30.05,NNW,330,0.0,-999.0,79,-99.99,,,0.00,weatherlink.com 1.10,2013-11-26 16:45:00,
2013-11-26 12:15:00,22.2,16.0,30.06,SSW,207,0.0,-999.0,78,-99.99,,,0.00,weatherlink.com 1.10,2013-11-26 17:15:00,
2013-11-26 12:30:00,22.3,16.0,30.06,SSW,209,0.0,-999.0,77,-99.99,,,0.00,weatherlink.com 1.10,2013-11-26 17:30:00,
2013-11-26 12:45:00,22.0,17.0,30.06,SW,214,0.0,-999.0,80,-99.99,,,0.00,weatherlink.com 1.10,2013-11-26 17:45:00,
2013-11-26 13:00:00,21.1,15.0,30.07,West,261,0.0,-999.0,77,-99.99,,,0.00,weatherlink.com 1.10,2013-11-26 18:00:00,
2013-11-26 13:15:00,20.8,14.0,30.07,North,5,0.0,-999.0,76,-99.99,,,0.00,weatherlink.com 1.10,2013-11-26 18:15:00,
2013-11-26 13:30:00,21.1,14.0,30.08,West,273,0.0,-999.0,74,-99.99,,,0.00,weatherlink.com 1.10,2013-11-26 18:30:00,
2013-11-26 13:45:00,20.9,14.0,30.08,North,11,1.0,-999.0,73,-99.99,,,0.00,weatherlink.com 1.10,2013-11-26 18:45:00,
2013-11-26 14:00:00,21.0,12.0,30.08,WNW,296,0.0,-999.0,67,-99.99,,,0.00,weatherlink.com 1.10,2013-11-26 19:00:00,
2013-11-26 14:15:00,21.1,12.0,30.09,WSW,248,0.0,-999.0,69,-99.99,,,0.00,weatherlink.com 1.10,2013-11-26 19:15:00,
2013-11-26 14:30:00,20.6,11.0,30.09,NE,40,2.0,-999.0,67,-99.99,,,0.00,weatherlink.com 1.10,2013-11-26 19:30:00,
2013-11-26 14:45:00,20.5,12.0,30.10,North,355,0.0,-999.0,69,-99.99,,,0.00,weatherlink.com 1.10,2013-11-26 19:45:00,
2013-11-26 15:00:00,19.8,10.0,30.11,SW,219,0.0,-999.0,67,-99.99,,,0.00,weatherlink.com 1.10,2013-11-26 20:00:00,
2013-11-26 15:15:00,19.4,9.0,30.11,SSW,211,1.0,-999.0,65,-99.99,,,0.00,weatherlink.com 1.10,2013-11-26 20:15:00,
2013-11-26 15:30:00,19.1,9.0,30.12,West,277,0.0,-999.0,66,-99.99,,,0.00,weatherlink.com 1.10,2013-11-26 20:30:00,
2013-11-26 15:45:00,18.7,8.0,30.13,WNW,302,1.0,-999.0,64,-99.99,,,0.00,weatherlink.com 1.10,2013-11-26 20:45:00,
2013-11-26 16:00:00,17.9,9.0,30.14,SSW,196,0.0,-999.0,67,-99.99,,,0.00,weatherlink.com 1.10,2013-11-26 21:00:00,
2013-11-26 16:15:00,17.4,9.0,30.14,North,5,0.0,-999.0,69,-99.99,,,0.00,weatherlink.com 1.10,2013-11-26 21:15:00,
2013-11-26 16:30:00,16.7,8.0,30.16,NW,323,0.0,-999.0,69,-99.99,,,0.00,weatherlink.com 1.10,2013-11-26 21:30:00,
2013-11-26 16:45:00,15.9,8.0,30.17,NW,309,0.0,-999.0,70,-99.99,,,0.00,weatherlink.com 1.10,2013-11-26 21:45:00,
2013-11-26 17:00:00,15.5,7.0,30.17,WSW,256,0.0,-999.0,69,-99.99,,,0.00,weatherlink.com 1.10,2013-11-26 22:00:00,
2013-11-26 17:15:00,15.2,6.0,30.17,West,265,1.0,-999.0,68,-99.99,,,0.00,weatherlink.com 1.10,2013-11-26 22:15:00,
2013-11-26 17:30:00,14.8,6.0,30.18,West,268,0.0,-999.0,69,-99.99,,,0.00,weatherlink.com 1.10,2013-11-26 22:30:00,
2013-11-26 17:45:00,14.5,7.0,30.18,SW,229,0.0,-999.0,71,-99.99,,,0.00,weatherlink.com 1.10,2013-11-26 22:45:00,
2013-11-26 18:00:00,14.3,7.0,30.19,SSE,164,1.0,-999.0,72,-99.99,,,0.00,weatherlink.com 1.10,2013-11-26 23:00:00,
2013-11-26 18:15:00,14.1,7.0,30.19,NNW,338,0.0,-999.0,72,-99.99,,,0.00,weatherlink.com 1.10,2013-11-26 23:15:00,
2013-11-26 18:30:00,14.0,7.0,30.19,NW,305,0.0,-999.0,73,-99.99,,,0.00,weatherlink.com 1.10,2013-11-26 23:30:00,
2013-11-26 18:45:00,14.0,7.0,30.19,NW,307,0.0,-999.0,73,-99.99,,,0.00,weatherlink.com 1.10,2013-11-26 23:45:00,
2013-11-26 19:00:00,13.9,7.0,30.19,WNW,283,0.0,-999.0,74,-99.99,,,0.00,weatherlink.com 1.10,2013-11-27 00:00:00,
2013-11-26 19:15:00,13.9,7.0,30.19,SW,223,0.0,-999.0,75,-99.99,,,0.00,weatherlink.com 1.10,2013-11-27 00:15:00,
2013-11-26 19:30:00,13.9,7.0,30.20,NW,317,0.0,-999.0,75,-99.99,,,0.00,weatherlink.com 1.10,2013-11-27 00:30:00,
2013-11-26 19:45:00,14.4,8.0,30.19,SW,229,0.0,-999.0,76,-99.99,,,0.00,weatherlink.com 1.10,2013-11-27 00:45:00,
2013-11-26 20:00:00,14.3,8.0,30.19,SW,224,2.0,-999.0,77,-99.99,,,0.00,weatherlink.com 1.10,2013-11-27 01:00:00,
2013-11-26 20:15:00,14.2,9.0,30.19,SW,234,0.0,-999.0,80,-99.99,,,0.00,weatherlink.com 1.10,2013-11-27 01:15:00,
2013-11-26 20:30:00,14.1,10.0,30.18,SW,218,0.0,-999.0,83,-99.99,,,0.00,weatherlink.com 1.10,2013-11-27 01:30:00,
2013-11-26 20:45:00,14.1,10.0,30.19,WSW,246,0.0,-999.0,82,-99.99,,,0.00,weatherlink.com 1.10,2013-11-27 01:45:00,
2013-11-26 21:00:00,14.3,10.0,30.19,North,9,1.0,-999.0,81,-99.99,,,0.00,weatherlink.com 1.10,2013-11-27 02:00:00,
2013-11-26 21:15:00,14.8,11.0,30.19,South,178,0.0,-999.0,84,-99.99,,,0.00,weatherlink.com 1.10,2013-11-27 02:15:00,
2013-11-26 21:30:00,14.9,12.0,30.19,WNW,294,0.0,-999.0,87,-99.99,,,0.00,weatherlink.com 1.10,2013-11-27 02:30:00,
2013-11-26 21:45:00,15.1,12.0,30.19,West,266,0.0,-999.0,87,-99.99,,,0.00,weatherlink.com 1.10,2013-11-27 02:45:00,
2013-11-26 22:00:00,15.3,12.0,30.18,SW,227,0.0,-999.0,86,-99.99,,,0.00,weatherlink.com 1.10,2013-11-27 03:00:00,
2013-11-26 22:15:00,15.6,12.0,30.18,SW,217,1.0,-999.0,85,-99.99,,,0.00,weatherlink.com 1.10,2013-11-27 03:15:00,
2013-11-26 22:30:00,15.8,12.0,30.19,WNW,299,0.0,-999.0,84,-99.99,,,0.00,weatherlink.com 1.10,2013-11-27 03:30:00,
2013-11-26 22:45:00,16.0,13.0,30.19,West,270,0.0,-999.0,86,-99.99,,,0.00,weatherlink.com 1.10,2013-11-27 03:45:00,
2013-11-26 23:00:00,15.8,13.0,30.18,WSW,238,0.0,-999.0,88,-99.99,,,0.00,weatherlink.com 1.10,2013-11-27 04:00:00,
2013-11-26 23:15:00,15.7,13.0,30.19,WSW,237,0.0,-999.0,88,-99.99,,,0.00,weatherlink.com 1.10,2013-11-27 04:15:00,
2013-11-26 23:30:00,15.8,13.0,30.19,SSW,195,0.0,-999.0,88,-99.99,,,0.00,weatherlink.com 1.10,2013-11-27 04:30:00,
2013-11-26 23:45:00,15.9,13.0,30.18,SSW,204,0.0,-999.0,88,-99.99,,,0.00,weatherlink.com 1.10,2013-11-27 04:45:00,